[Iaude] MPEC P94: 2020 PT2 [a=2.48,e=0.60,i=1.6,H=26.5]

mpec at marsden.cfa.harvard.edu mpec at marsden.cfa.harvard.edu
Fri Aug 14 22:10:46 EDT 2020


M.P.E.C. 2020-P94                               Issued 2020 August 15, 02:09 UT

     The Minor Planet Electronic Circulars contain information on unusual
         minor planets and routine data on comets.  They are published
    on behalf of Division F of the International Astronomical Union by the
          Minor Planet Center, Smithsonian Astrophysical Observatory,
                          Cambridge, MA 02138, U.S.A.

             Prepared using the Tamkin Foundation Computer Network

                              MPC at CFA.HARVARD.EDU
            URL https://www.minorplanetcenter.net/    ISSN 1523-6714

                                    2020 PT2                                    


Observations:
     K20P02T  C2020 08 12.33202721 11 58.997-01 53 59.42         18.92GVEP094F51
     K20P02T  C2020 08 12.34301021 12 24.172-01 51 38.77         18.87GVEP094F51
     K20P02T  C2020 08 12.35401621 12 49.419-01 49 17.32         18.92GVEP094F51
     K20P02T  C2020 08 12.36475121 13 14.074-01 46 58.69               VEP094F51
     K20P02T* C2020 08 13.19755 21 51 10.93 +01 32 01.9          19.2 GVEP094U68
     K20P02T  C2020 08 13.19777 21 51 11.43 +01 32 05.1          19.0 GVEP094U68
     K20P02T  C2020 08 13.20089 21 51 20.48 +01 32 54.4          19.2 GVEP094U68
     K20P02T  C2020 08 13.20111 21 51 21.20 +01 32 58.7          19.0 GVEP094U68
     K20P02T  C2020 08 13.25019 21 53 44.80 +01 46 06.9          18.8 GVEP094U68
     K20P02T  C2020 08 13.25353 21 53 54.61 +01 47 01.1          18.8 GVEP094U68
     K20P02T  C2020 08 13.39938922 01 22.912+02 28 43.57               VEP094F52
     K20P02T  C2020 08 13.41016722 01 55.102+02 31 42.96         18.61GVEP094F52
     K20P02T  C2020 08 13.43983922 03 23.889+02 39 57.82         18.52GVEP094F52
     K20P02T  C2020 08 14.58671423 10 03.568+08 17 27.33         18.63GVEP094F51
     K20P02T  C2020 08 14.59617723 10 37.607+08 20 13.52         18.44GVEP094F51
     K20P02T KC2020 08 14.98466623 35 45.74 +10 09 42.8          18.7 GVEP094I93
     K20P02T KC2020 08 14.98745623 35 56.06 +10 10 30.7          19.0 GVEP094I93
     K20P02T KC2020 08 14.99024523 36 06.41 +10 11 18.4          18.9 GVEP094I93
     K20P02T KC2020 08 15.00338323 36 51.06 +10 15 10.3          18.4 GVEP094K63
     K20P02T KC2020 08 15.00543223 36 58.58 +10 15 45.4          18.6 GVEP094K63
     K20P02T KC2020 08 15.00771923 37 07.05 +10 16 24.3          19.0 GVEP094K63
     K20P02T KC2020 08 15.01005723 37 15.68 +10 17 04.3          18.1 GVEP094K63

Observer details:
F51 Pan-STARRS 1, Haleakala.  Observers J. Bulger, K. Chambers, T. Lowe, A.
    Schultz, M. Willman.  Measurers S. Chastel, M. Huber, Y. Ramanjooloo, R.
    Wainscoat, R. Weryk.  1.8-m Ritchey-Chretien + CCD.
F52 Pan-STARRS 2, Haleakala.  Observers J. Bulger, K. Chambers, T. Dukes, T.
    Lowe, A. Schultz, M. Willman.  Measurers S. Chastel, M. Huber, Y.
    Ramanjooloo, R. Wainscoat, R. Weryk.  1.8-m Ritchey-Chretien + CCD.
I93 St Pardon de Conques.  Observer F. Losse.  0.40-m f/3.7 reflector + CCD.
K63 G. Pascoli Observatory, Castelvecchio Pascoli.  Observer R. Bacci.  0.4-m
    f/3.2 Newtonian reflector + CCD.
U68 JPL SynTrack Robotic Telescope, Auberry.  Observers N. Saini, C. Zhai, R.
    Trahan, M. Shao.  0.28-m f/2.2 Schmidt + CCD.

Orbital elements:
2020 PT2                                                 Earth MOID = 0.0012 AU
Epoch 2020 May 31.0 TT = JDT 2459000.5                  Veres
M 336.84496              (2000.0)            P               Q
n   0.25179214     Peri.  192.02099     +0.95292731     +0.30289277
a   2.4837503      Node   150.33655     -0.27584986     +0.88474109
e   0.5953647      Incl.    1.57700     -0.12584271     +0.35424450
P   3.91           H   26.5           G   0.15           U   6
Residuals in seconds of arc
200812 F51  0.1+  0.0     200813 U68  0.5-  0.3-    200814 I93  0.6-  0.0
200812 F51  0.0   0.0     200813 U68  0.1-  0.1-    200814 I93  0.3-  0.0
200812 F51  0.0   0.1-    200813 F52  0.6+  0.2+    200815 K63  0.3+  0.5-
200812 F51  0.0   0.1+    200813 F52  0.7+  0.3+    200815 K63  0.2-  0.2-
200813 U68 (2.3+  0.3+)   200813 F52  0.0   0.0     200815 K63  0.4+  0.0
200813 U68  0.1+  0.0     200814 F51  0.2+  0.1+    200815 K63  0.6+  0.4+
200813 U68  1.1-  0.5-    200814 F51  0.2-  0.0
200813 U68  0.1+  0.2+    200814 I93  0.3-  0.2-

Ephemeris:
2020 PT2                 a,e,i = 2.48, 0.60, 2                   q = 1.0050
Date    TT    R. A. (2000) Decl.     Delta      r    Elong.  Phase     V
2020 07 16    18 20 57.3 -16 03 07   0.1595  1.1677   160.1    17.2    23.8
...
2020 07 31    18 38 08.6 -14 07 57   0.07831 1.0837   150.1    27.8    22.4
...
2020 08 08    19 29 24.4 -10 23 17   0.03917 1.0494   154.3    24.8    20.7
...
2020 08 14    22 34 34.9 +05 23 54   0.01820 1.0296   155.3    24.2    19.0
2020 08 15    23 36 27.1 +10 18 39   0.01764 1.0268   142.0    37.4    19.3
2020 08 16    00 38 56.0 +14 23 39   0.01850 1.0242   128.1    51.1    19.8
...
2020 08 22    03 50 55.4 +19 19 10   0.03973 1.0118    89.3    88.4    22.6
...
2020 08 30    04 46 56.0 +18 24 06   0.07698 1.0048    84.2    91.5    24.2
...
2020 09 14    05 15 40.3 +17 34 25   0.1456  1.0213    92.0    79.9    25.2

M. P. C. Staff               (C) Copyright 2020 MPC           M.P.E.C. 2020-P94




More information about the Iaude mailing list